Location: Białystok
(53.1343°N, 23.1544°E)
Time: 19:26:09
(UTC+01:00)

ISS - Visible Passes

Search period start: 22 February 2018 00:00
Search period end: 04 March 2018 00:00
Orbit: 402 x 407 km, 51.6° (Epoch: 23 February)

Date Brightness Start Highest point End Pass type
(mag) Time Alt. Az. Time Alt. Az. Time Alt. Az.
27 Feb -0.9 05:35:27 10° S 05:37:15 14° SE 05:39:04 10° ESE visible
01 Mar -1.6 05:26:09 10° SSW 05:28:49 23° SSE 05:31:30 10° E visible
02 Mar -1.2 04:34:35 10° S 04:36:42 16° SE 04:38:50 10° ESE visible
03 Mar -0.9 03:44:04 10° SSE 03:44:39 11° SE 03:45:23 10° SE visible
03 Mar -2.5 05:17:22 10° SW 05:20:25 36° SSE 05:23:28 10° E visible
